sat.trackr.live / text

‹ back to catalog

STARLINK-5158

NORAD 54055 · 2022-136E

PAYLOAD ACTIVE UNKNOWN

§ Identity

Operator
Country
US
Launch date
2022-10-20
Launch site
AFETR
Launch vehicle
Mass (kg)
RCS (m²)

Purposes: comms

External: N2YO · Heavens-Above · Gunter

§ Orbital elements

Epoch: 2026-09-20T06:27:21.561984Z

Period
93.90 min
Inclination
53.1604°
Eccentricity
0.0001181
Mean motion
15.33543281 rev/d
Perigee alt
464.4 km
Apogee alt
466.1 km
Semi-major
6,843.4 km
B*
4.4315e-5
RAAN
179.1097°
Arg perigee
94.5620°
Mean anomaly
265.5517°
Rev number
21,637

§ Raw data

STARLINK-51581 54055U 22136E   26263.26899956  .00001085  00000+0  44315-4 0  99902 54055  53.1604 179.1097 0001181  94.5620 265.5517 15.33543281216376

JSON: /api/v1/satellites/54055 · /tle

For live sub-satellite position, see the globe view (requires WebGL).

§ Visibility from observer

Set your observer location to see the next 7 days of passes ≥ 10°. The values pass through the URL so the page stays shareable.

No JS? Fill the form by hand. The geolocation button needs JavaScript.